This is the latest recevied weather packets stored in our database for station/object DL1AIE-13. If no packets are shown the sender has not sent any weather packets the latest 10 day(s).
| Time | Temp. | Humidity | Pressure | Rain* | Wind** | Luminosity | Snow |
|---|---|---|---|---|---|---|---|
| 1777596752 | 7.22° C | 69% | 1028.6 hPa | 0 mm | - | - | - |
| 1777596149 | 8.33° C | 65% | 1028.6 hPa | 0 mm | - | - | - |
| 1777595544 | 7.78° C | 66% | 1028.5 hPa | 0 mm | - | - | - |
| 1777594944 | 8.33° C | 66% | 1028.5 hPa | 0 mm | - | - | - |
| 1777594337 | 7.78° C | 66% | 1028.4 hPa | 0 mm | - | - | - |
| 1777593753 | 8.33° C | 66% | 1028.3 hPa | 0 mm | - | - | - |
| 1777593149 | 10° C | 56% | 1028.3 hPa | 0 mm | - | - | - |
| 1777592549 | 10° C | 56% | 1028.4 hPa | 0 mm | - | - | - |
| 1777591942 | 7.78° C | 65% | 1028.5 hPa | 0 mm | - | - | - |
| 1777591338 | 7.78° C | 68% | 1028.6 hPa | 0 mm | - | - | - |
| 1777590754 | 7.22° C | 67% | 1028.6 hPa | 0 mm | - | - | - |
| 1777590150 | 6.67° C | 69% | 1028.5 hPa | 0 mm | - | - | - |
| 1777589546 | 7.22° C | 66% | 1028.5 hPa | 0 mm | - | - | - |
| 1777588942 | 6.67° C | 66% | 1028.5 hPa | 0 mm | - | - | - |
| 1777588339 | 7.22° C | 67% | 1028.5 hPa | 0 mm | - | - | - |
| 1777587755 | 7.78° C | 64% | 1028.3 hPa | 0 mm | - | - | - |
| 1777587151 | 7.78° C | 63% | 1028.3 hPa | 0 mm | - | - | - |
| 1777586547 | 7.78° C | 63% | 1028.1 hPa | 0 mm | - | - | - |
| 1777585944 | 9.44° C | 55% | 1028.2 hPa | 0 mm | - | - | - |
| 1777585340 | 9.44° C | 54% | 1028.1 hPa | 0 mm | - | - | - |
| 1777584737 | 8.89° C | 57% | 1027.9 hPa | 0 mm | - | - | - |
| 1777584154 | 8.89° C | 56% | 1027.9 hPa | 0 mm | - | - | - |
| 1777583550 | 9.44° C | 55% | 1028 hPa | 0 mm | - | - | - |
| 1777582946 | 8.89° C | 56% | 1027.9 hPa | 0 mm | - | - | - |
| 1777582342 | 10° C | 53% | 1027.7 hPa | 0 mm | - | - | - |
* Rain latest hour (hover to see other rain measurements)
** Current wind speed in m/s (hover to see current wind gust speed)